Snowfall_Accumulation
0.3 0.3 0.2 0.2 0.1 0.3 0.4 0.5 1.2 1.3 0.2 0.1 0.1 0.1 0.1 0.1 0.1 0.2 0.2 0.1 0.0 0.1 0.1 0.1 0.1 0.2 0.2 0.2 0.2 0.2 0.2 0.1 0.1 0.1 0.1 0.0 0.0 0.0
0.3 0.5 0.3 0.3 0.1 0.3 0.4 0.4 0.8 1.4 1.1 0.1 0.1 0.1 0.0 0.1 0.1 0.1 0.1 0.2 0.2 0.3 0.0 0.1 0.1 0.2 0.2 0.2 0.3 0.3 0.2 0.2 0.2 0.2 0.2 0.1 0.1 0.0
0.4 0.5 0.5 0.4 0.4 0.3 0.3 0.4 0.6 1.0 1.5 0.5 0.2 0.2 0.2 0.3 0.2 0.0 0.0 0.1 0.2 0.1 0.2 0.1 0.2 0.3 0.4 0.4 0.4 0.4 0.3 0.3 0.3 0.3 0.3 0.3 0.2 0.2
0.6 0.4 0.5 0.4 0.6 0.5 0.4 0.5 0.5 0.7 1.3 1.3 0.6 0.7 0.6 0.4 0.3 0.2 0.1 0.2 0.1 0.1 0.2 0.2 0.3 0.4 0.5 0.6 0.6 0.5 0.5 0.5 0.5 0.4 0.3 0.3 0.3 0.3
0.7 0.8 0.7 0.7 0.8 1.0 0.6 0.7 0.7 0.8 1.1 1.7 1.3 1.0 0.9 0.7 0.6 0.6 0.4 0.2 0.0 0.1 0.1 0.2 0.3 0.4 0.8 0.7 0.6 0.6 0.7 0.6 0.5 0.6 0.5 0.5 0.5 0.4
0.8 0.8 0.9 1.2 1.2 1.2 1.4 1.3 1.2 1.7 1.9 2.1 2.0 2.0 1.7 1.1 1.0 1.1 1.1 0.9 0.5 0.3 0.3 0.2 0.4 0.5 0.5 0.3 0.4 0.4 0.5 0.7 0.9 0.9 1.0 0.9 0.8 0.7
1.2 1.3 1.5 1.4 1.4 1.6 1.9 2.5 2.6 3.2 3.4 4.1 3.9 2.9 1.7 1.4 1.2 1.1 1.7 1.6 1.3 0.6 0.8 0.5 0.8 0.7 0.6 0.3 0.4 0.3 0.6 0.9 1.0 1.1 1.3 1.3 1.2 1.1
2.0 1.8 1.9 1.9 1.8 1.6 1.6 2.0 3.3 4.9 6.0 6.2 4.6 3.0 1.7 1.1 1.3 1.6 2.4 3.1 2.4 0.9 1.3 0.8 0.7 1.0 1.0 0.4 0.6 0.6 0.8 1.0 1.2 1.4 1.5 1.6 1.6 1.3
2.6 2.7 2.7 2.3 2.2 2.0 1.9 1.9 2.2 2.8 3.8 4.3 4.2 2.6 1.6 1.6 2.5 3.6 3.6 3.9 3.2 1.6 1.8 1.8 1.1 1.2 1.1 0.9 0.7 0.7 0.5 0.8 1.1 1.5 1.7 1.9 1.8 1.6
3.0 2.5 2.3 2.1 2.0 2.6 2.9 3.5 2.6 1.9 1.4 1.7 2.0 1.8 1.8 1.7 2.8 4.4 4.4 3.9 2.2 1.2 1.4 2.9 1.7 1.5 1.6 1.1 1.0 0.8 1.0 1.0 1.6 2.0 2.0 2.1 2.0 2.1
2.3 2.0 2.0 1.9 2.0 3.3 4.7 5.1 2.8 1.4 1.1 1.4 1.8 2.0 2.0 2.3 2.5 4.7 5.9 6.2 5.6 2.3 1.4 2.8 2.3 2.3 1.8 1.8 1.1 1.1 1.2 1.6 1.3 1.3 1.6 1.6 1.7 1.9
1.9 1.3 1.3 1.8 2.7 4.1 5.1 5.3 4.5 2.7 2.5 1.6 1.3 1.2 1.5 1.4 1.6 3.1 5.6 9.2 8.5 5.7 1.8 3.0 3.5 4.3 5.7 2.6 1.7 1.6 1.5 1.3 1.7 1.7 1.3 1.4 1.7 2.3
2.7 1.9 1.2 2.2 3.4 4.3 4.4 4.4 4.5 4.5 4.0 3.5 2.6 2.4 2.3 2.2 1.8 1.8 3.3 7.5 11.0 8.3 3.1 6.3 8.3 6.6 9.3 5.9 2.7 2.1 2.2 2.3 1.7 1.9 2.1 2.2 2.4 3.9
3.9 2.7 2.5 3.2 3.7 3.5 3.4 3.4 4.1 4.6 4.7 4.6 4.0 3.4 3.0 3.1 2.8 2.6 2.9 3.3 5.0 6.1 4.0 7.4 13.6 10.4 12.6 10.4 5.8 4.1 3.6 3.1 3.2 3.9 3.6 3.6 4.2 4.2
3.8 3.5 3.8 4.0 3.8 3.4 2.9 3.1 3.3 4.3 5.0 5.4 5.1 4.0 3.5 3.6 3.4 3.4 3.1 3.0 3.4 3.3 3.3 4.3 8.9 10.2 12.9 13.5 8.8 5.2 5.1 4.8 4.2 5.3 5.1 5.2 5.1 5.1
4.1 3.6 3.4 3.1 3.3 3.2 3.0 3.5 3.5 4.1 5.1 5.7 5.6 4.8 4.4 4.6 4.8 4.7 5.2 5.0 5.9 4.9 3.8 3.7 5.2 9.2 12.0 9.2 9.4 8.9 6.2 7.3 6.6 7.0 7.3 6.8 5.8 5.4
5.9 4.9 4.0 3.5 3.4 3.7 3.8 3.8 4.1 4.3 5.7 5.4 6.2 6.5 5.9 5.7 5.5 5.6 7.1 7.8 8.3 6.3 5.4 4.5 4.6 5.7 7.4 9.3 10.7 8.3 6.9 7.3 8.2 9.6 10.8 10.3 6.6 4.8
6.2 6.2 4.7 4.1 4.5 4.5 4.9 5.3 5.4 5.9 6.2 6.7 7.3 7.6 8.1 7.8 7.6 6.8 7.7 9.1 9.1 7.1 6.9 6.2 7.3 8.7 8.8 7.5 7.1 8.8 9.1 9.3 9.7 10.4 12.2 14.3 11.2 5.9
6.4 5.8 4.9 4.9 5.1 5.2 5.4 6.0 6.5 6.2 6.8 8.1 8.7 9.4 10.2 9.8 9.1 8.7 8.9 9.0 8.6 7.9 7.3 7.6 10.2 15.0 15.6 10.6 6.9 7.5 11.5 12.4 11.4 11.5 12.5 15.1 16.9 10.3
5.2 5.6 5.8 5.6 5.7 5.9 6.2 6.7 6.7 6.8 7.7 8.1 8.9 10.3 11.4 12.1 11.5 10.2 9.3 9.7 10.0 9.1 8.0 7.2 9.0 13.9 19.3 16.4 12.5 9.1 8.5 13.7 16.0 16.4 14.0 11.6 9.5 6.2
5.5 5.8 6.2 6.5 6.8 7.0 7.0 7.3 7.9 8.2 8.2 9.6 10.0 10.6 12.0 13.7 12.9 11.1 10.9 10.3 11.3 11.5 10.5 8.0 7.2 8.9 13.9 17.1 15.2 10.5 9.9 8.8 11.8 18.6 18.7 17.5 14.4 12.1
5.6 6.0 6.1 6.7 7.3 7.7 8.2 8.3 8.7 8.6 9.0 10.0 10.6 10.9 11.6 13.6 14.0 12.7 12.3 12.3 11.4 11.0 10.4 8.8 8.5 10.1 13.2 16.6 13.5 9.3 9.2 8.7 8.4 8.3 11.1 16.1 25.9 27.5
6.8 6.7 6.6 7.0 7.2 8.0 8.7 8.9 9.0 8.7 9.0 10.4 11.6 11.9 12.4 13.0 12.8 13.4 13.4 13.0 13.0 12.3 11.6 11.0 9.5 9.7 10.3 11.0 11.6 10.1 9.1 8.9 8.9 9.7 11.3 10.6 9.5 11.4